カタログに戻る

STARLINK-30961

運用中通信VLEO
NORAD 58445·PAYLOAD·🇺🇸 United States

打ち上げ Nov 28, 2023 から Cape Canaveral Space Force Station

Loading…

次のパス (今後24時間)

TLE

最新Source: CelesTrak SupGP

元期: Sep 14, 2026, 22:42 UTC

1 58445C 23183J   26257.94631944  .00045439  00000+0  16458-2 0  2572
2 58445  43.0035  52.6092 0001702 272.4049 346.0024 15.27556515    17

AllMySatでSTARLINK-30961をリアルタイム追跡

Download on the App Store